GALAXY 30 (WAAS/PRN 135)

Last updated on Sat Dec 13 2025 00:03:28 GMT+0000 (Coordinated Universal Time)

1 46114U 20056C 25346.25157897 .00000046 00000+0 00000+0 0 9991 2 46114 0.0132 333.7243 0002245 287.9124 145.1344 1.00272766 19413
UTC large
Height (km)
Speed (km/s)
/
Latitude / Longitude
Inclination (degrees)
Orbital Period (minutes)
Azimuth
Elevation
Range (km)
Doppler Factor

Next 0 passes for location: London (51.5072 / 0.1276)

Sorry there are no passes over London.